Location: Wapato
(46.4478°N, 120.4212°W)
Time: 23:01:12
(UTC+00:00)

Vanguard 1 Rocket - Pass Details

Date: 12 May 2026
Orbit: 656 x 4211 km, 34.3° (Epoch: 7 June)

Event Time Altitude Azimuth Distance (km) Brightness Sun altitude
Rises 07:31:04 0° 278° (W) 7,600 12.3 -25.1°
Reaches altitude 10° 07:38:29 10° 264° (W) 7,022 11.9 -25.2°
Maximum altitude 07:52:28 19° 229° (SW) 6,628 11.4 -25.4°
Enters shadow 07:58:11 17° 214° (SW) 6,729 11.3 -25.4°
